Home   Weather   Passo Fundo   Past weeks

Flag for Brazil Past Weather in Passo Fundo, Rio Grande do Sul, Brazil — Yesterday and Last 2 Weeks

61 °F

Partly sunny.

Feels Like: 61 °F
Forecast: 54 / 67 °F
Wind: 8 mph from Southwest

Location: Porto Alegre Aero-Porto

Current Time: Oct 21, 2016 at 9:14:28 AM

Latest Report: Oct 21, 2016 at 8:00 AM

Visibility: N/A

Pressure: 30.07 "Hg (27.75 "Hg at 680m altitude)

Humidity: 77%

Dew Point: 54 °F

Location of Passo FundoLocation

Past Weather in Passo Fundo — Graph


Passo Fundo Temperature Yesterday

Maximum temperature yesterday: 75 °F (at 3:00 PM)
Minimum temperature yesterday: 64 °F (at 9:00 PM)
Average temperature yesterday: 69 °F

High & Low Weather Summary for the Past Weeks

High84 °F (Oct 11, 4:00 PM)100% (Oct 17, 6:00 AM)30.27 "Hg (Oct 17, 6:00 AM)
Low32 °F (Oct 17, 9:00 AM)17% (Oct 10, 3:00 PM)29.68 "Hg (Oct 13, 5:00 AM)
Average68 °F75%29.92 "Hg
* Reported Oct 6 7:00 AM — Oct 21 8:00 AM, Passo Fundo, Weather by CustomWeather, © 2016

Note: Actual official high and low records may vary slightly from our data, if they occured in-between our weather recording intervals... More about our weather records


Passo Fundo Weather History for the Previous 24 Hours

Scroll right to see more
Time TempWeatherWind HumidityBarometerVisibility
8:00 AM
Fri, Oct 21
61 °FPartly sunny.8 mph77%30.07 "HgN/A
7:00 AM61 °FPartly sunny.7 mph77%30.04 "HgN/A
6:00 AM61 °FPassing clouds.6 mph83%30.04 "HgN/A
5:00 AM61 °FPassing clouds.5 mph83%30.01 "HgN/A
4:00 AM61 °FPassing clouds.2 mph83%29.98 "HgN/A
3:00 AM61 °FPassing clouds.2 mph83%30.01 "HgN/A
2:00 AM63 °FPassing clouds.5 mph77%30.01 "HgN/A
1:00 AM63 °FPassing clouds.1 mph77%30.04 "HgN/A
12:00 AM63 °FPassing clouds.3 mph77%30.04 "HgN/A
11:00 PM
Thu, Oct 20
64 °FPassing clouds.9 mph68%30.01 "HgN/A
10:00 PM64 °FPassing clouds.16 mph73%29.98 "HgN/A
9:00 PM64 °FPassing clouds.14 mph73%29.95 "HgN/A
8:00 PM66 °FClear.22 mph68%29.92 "Hg10 mi
7:00 PM68 °FPartly sunny.18 mph69%29.92 "HgN/A
6:00 PM72 °FPartly sunny.10 mph61%29.89 "HgN/A
5:00 PM73 °FPartly sunny.10 mph57%29.86 "HgN/A
4:00 PM75 °FPartly sunny.23 mph57%29.86 "HgN/A
3:00 PM75 °FScattered clouds.20 mph54%29.86 "HgN/A
2:00 PM73 °FScattered clouds.20 mph61%29.86 "HgN/A
1:00 PM72 °FScattered clouds.21 mph65%29.86 "HgN/A
12:00 PM72 °FScattered clouds.22 mph65%29.86 "HgN/A
11:00 AM70 °FScattered clouds.23 mph64%29.86 "HgN/A
10:00 AM70 °FScattered clouds.21 mph69%29.86 "HgN/A
9:00 AM70 °FScattered clouds.18 mph73%29.86 "HgN/A
Weather by CustomWeather, © 2016

See weather overviewHow to use our weather pages